Location: La Coruña
(43.3623°N, 8.4115°W)
Time: 20:21:45
(UTC+01:00)

STARLINK-1076 - Pass Details

Date: 17 January 2020
Orbit: 348 x 351 km, 53.0° (Epoch: 18 February)

Event Time Altitude Azimuth Distance (km) Brightness Sun altitude
Rises 19:49:24 0° 239° (WSW) 2,153 8.2 -15.1°
Reaches altitude 10° 19:51:25 10° 242° (WSW) 1,314 6.8 -15.4°
Maximum altitude 19:54:19 67° 326° (NW) 385 2.8 -15.9°
Enters shadow 19:55:08 42° 34° (NE) 519 3.1 -16.1°
